Member area
Imprimable
Wissant, 08-09/09/2018, FRA - Trail de la Côte d'Opale
List of reports > 21km - Results
Search: Page: [1]
320 Entries
 
Complains are not accepted anymore. Results are final.
PlaceNrLicenceNameAgeNATTeamTimeTkmMoy.ScrCity
1.43341841840DELATTRE Benjamin23FRARCARRAS1:25:544:06 14.671
2.44751876058GOSSART Jérôme29FRAUS MARQUETTE1:29:094:15 14.133
3.4238GOSSART Julien31FRA1:30:544:20 13.864
4.4075SERGENT Guillaume37FRA1:31:414:22 13.745
5.47161117071LEFEBVRE Alexis35FRAPHILIPPIDES TEMPLEUVOIS1:31:584:23 13.706
6.50911955571VANSTRAZEELE Mathieu32FRAAC OUTREAU1:32:044:24 13.697
7.4639COUSIN Anthony39FRA1:32:554:26 13.568
8.4958GOUINEAU Pierre26FRA1:33:464:28 13.449
9.4192VASSAL Nicolas37FRAFOULÉES SAINGHINOISES1:34:074:29 13.3910
10.48311767316FACHE Lionel28FRAS/L US TOURCOING1:35:174:33 13.2312
11.4821DESCAMPS Vianney22FRA1:35:374:34 13.1813
12.49842064549CLAISSE Gonzague37FRALMA1:37:124:38 12.9614
13.4858COURTIN Hugo21BEL1:37:334:39 12.9215
14.5089DUWATTEZ Sebastien39FRATEAM ST YORRE1:39:114:44 12.7018
15.4120DEWAVRIN Florent35FRATEAM NORMAL RUNNER1:39:284:45 12.6719
16.4898CLAM Pierre39BELACG1:39:454:45 12.6320
17.4057GOURNAY Mathieu34FRA1:41:564:52 12.3621
18.4261THEERLYNCK Hervé29FRA1:42:144:53 12.3323
19.5225GENTY Fabien30FRA1:42:374:54 12.2825
20.5096FORESTIER Florian19FRA1:44:545:00 12.0129
21.4728COURQUIN Anthony32FRA1:45:155:01 11.9730
22.45471884482LEDEZ Jeremy35FRABOULOGNE AC1:45:265:02 11.9532
23.4237DEGRYSE Quentin33BELRUNNINGGEEK.BE1:45:285:02 11.9533
24.4683SORET Franck36FRAAC OUTREAU1:45:445:03 11.9234
25.4916CANON Thomas27BEL1:45:495:03 11.9135
26.4181BUTRUILLE Elliot22FRA1:46:305:05 11.8336
27.5214DEGRAEVE Jean Philippe36FRA1:46:585:06 11.7837
28.4040PLANQUE Florent31FRA1:47:115:07 11.7638
29.4026TROCME Julien39FRA1:47:125:07 11.7639
30.40481964098VALLE Pierre24FRAPLANETE RUNNING1:47:225:07 11.7441
31.4835MICHON Nicolas31FRA1:47:235:07 11.7342
32.4674BRULIN Maxime28FRA1:47:425:08 11.7044
33.4182BLAMPAIN Ronald37BEL1:47:515:09 11.6845
34.4296FLAJOLLET Jeremy19FRABARCA1:48:145:10 11.6447
35.4414CHUFFART Olivier35FRA1:48:335:11 11.6150
36.4339PAPEGAEY Maxence26FRA1:48:455:11 11.5951
37.4525A66588C0190133MS3FRALELEU Vincent33FRAVILLENEUVE D'ASCQ1:48:465:11 11.5952
38.5002DELPLANQUE Paul29FRAPATRIOTE CROSS DE GUINES1:50:245:16 11.4163
39.4166CLERX Arnaud23BELPIPAIX1:50:265:16 11.4164
40.5186BOUY Romain20FRATEAM LMC1:51:005:18 11.3567
41.5039DIAZ Loïc33FRA1:51:225:19 11.3268
42.4104DAQUIN Nicolas22FRA1:51:395:19 11.2969
43.4771VERSTRAETE Yann38FRA1:51:435:20 11.2870
44.4563BUTRUILLE Basile19FRA1:51:505:20 11.2771
45.5018SCHOLAERT Emeric37FRA1:51:515:20 11.2772
46.4501LOUF Lucas23FRA1:51:585:20 11.2573
47.4667GUILBERT Kévin28FRA1:52:175:21 11.2275
48.4615DOUILLARD Nathan22FRA1:52:285:22 11.2076
49.4536MATON Guillaume32BELTRIATH1:52:555:23 11.1677
50.4818GALLET Jerome30FRASPORT ET NATURE BEAUNE1:53:015:23 11.1579
51.4380DERENSY Antoine30FRA1:53:085:24 11.1480
52.5150PICARD Ulysse21FRA1:53:185:24 11.1281
53.4526ADAM Ruddy39FRA1:53:255:25 11.1184
54.4093HARMANGE Arthur27FRA1:53:345:25 11.1087
55.4752MAQUINGHEN Jérôme36FRA1:53:405:25 11.0988
56.5145COUELLANT Francois26FRA1:53:545:26 11.0689
57.4216PARZYJAGLA Antoine34FRA1:54:085:27 11.0490
58.5184MORY Romain20FRATEAM LMC1:54:095:27 11.0491
59.5102FONTAINE Thomas19FRA1:54:325:28 11.0094
60.4170MARTINOD Clément26FRA1:54:405:28 10.9996
61.4721GRILLET Julien32BEL1:55:305:30 10.91100
62.4122HENNUYER Christian38FRATEAM TIUNFU1:55:365:31 10.90103
63.4089REGNAUT Antoine37FRA1:55:385:31 10.90104
64.5168DEBLOCQ Vincent36FRA1:55:405:31 10.89106
65.4073BARRAS Julien33FRA1:55:495:31 10.88107
66.4926BACHETTI Jeremy27FRA1:55:525:32 10.88109
67.4082WALDHOFF Nicolas37FRA1:55:555:32 10.87110
68.42262060678HANSART Nicolas34FRAES ARQUES1:56:215:33 10.83113
69.4466DUPUIS Arnaud34BELRUNNING SAFE1:56:295:33 10.82114
70.5242LAURIER Alexandre27FRA1:56:335:33 10.81115
71.4259NEVE Martin36FRA1:56:515:34 10.78117
72.4750HANNEBICQUE Julien32FRA1:57:045:35 10.76120
73.4159DARRAS Guillaume30FRA1:57:045:35 10.76121
74.4700DUPONT Dorian26FRA1:57:105:35 10.75122
75.4788CHOCHOY Remi25FRA1:57:145:35 10.75123
76.4872LEBRUN Pierre-Marie27FRA1:57:275:36 10.73125
77.4064BEASSE Guillaume34FRA1:57:365:36 10.71127
78.4852PONTFORT Regis39FRAHELL RUNNERS1:57:415:37 10.71129
79.4905ZIETEK Mathieu28FRAHELLRUNNERS1:57:415:37 10.71130
80.5076CAPELLE Jérôme39FRA1:58:075:38 10.67134
81.4219FUZELLIER Kevin33FRA1:58:195:39 10.65137
82.5022HERREMAN Thibault35FRA1:58:445:40 10.61139
83.4135BOCH François29FRA1:58:485:40 10.61140
84.4880BILLET Sylvain37FRA1:58:495:40 10.61141
85.4670LE GALL Jean Francois37FRARUNNINGHEM1:59:235:42 10.55143
86.4784VANDERFAEILLIE Dieter37BEL1:59:415:42 10.53144
87.4229VIÉ Foucauld25FRA1:59:535:43 10.51146
88.4690DEZEGUE Fabien34FRATTO1:59:555:43 10.51147
89.4486DERONNE Roman25FRA2:00:105:44 10.49148
90.4145MASSET Dany38FRA2:00:495:46 10.43155
91.4727LAMARLE Antoine33FRA2:00:545:46 10.42156
92.4474AUDOOR Loïc27BEL2:01:055:46 10.41158
93.5148NAJI Damien30FRA2:01:095:47 10.40159
94.5164DEBERT Luc38FRA2:01:135:47 10.40160
95.4023GOUILLART Jeremy37FRACAPTAIN AMERICA2:01:405:48 10.36164
96.5144PERARD Julien28FRA2:01:525:49 10.34167
97.4969VERDIÈRE Sylvain28FRA2:02:115:50 10.31170
98.4250BERA Ulysse24FRA2:02:145:50 10.31171
99.5093RINGOT Arthur23FRADECATHLON CALAIS2:02:175:50 10.30172
100.4582VANHOUTE Olivier36BEL2:02:375:51 10.28173
101.4253DORIGNY Fabian36FRA2:02:545:52 10.25177
102.4449POTIE Benjamin37FRA2:02:565:52 10.25179
103.4604GUILBERT Vincent31FRA2:02:595:52 10.25180
104.4909TRENTESAUX Thomas39FRA2:03:045:52 10.24181
105.4067HOLUIGUE Nicolas26FRA2:03:555:55 10.17188
106.4896LARDIER Florent32FRA2:04:095:55 10.15191
107.4375NGUYEN-KHAC Vincent25FRA2:04:455:57 10.10199
108.4749LOUASSE Alexandre38FRA2:04:515:57 10.09200
109.5011MICHAUX Martin19FRA2:05:055:58 10.07205
110.4020VERNALDE Bastien29FRA2:05:115:58 10.07206
111.4346DELANOY Alexandre29FRA2:05:205:59 10.05207
112.5013LERIQUE Pierre Francois33FRALES ROULEUX2:05:225:59 10.05208
113.4309DE LANGHE Gilles36BELLES GENS D'ERE2:05:295:59 10.04209
114.5092COLIN Cedric24FRA2:05:476:00 10.02216
115.4591GAILLOT Paul19FRA2:06:016:01 10.00221
116.4467DUBART Hubert-Marie34BELTRI-ATH2:06:066:01 9.99223
117.5135FRULEUX Maxime27FRA2:06:096:01 9.99224
118.4060ALLEXANDRE Tony25FRA2:06:206:01 9.97226
119.4845PICOT Vianney20FRA2:06:246:02 9.97228
120.4185VALTORTA Dario35ITA2:06:276:02 9.97229
121.4509ALOY Rodolphe22FRA2:06:326:02 9.96230
122.4941HEDGES Gaetan26BEL2:06:326:02 9.96231
123.4169GIRARDOT Jeremy31FRABOULE TEAM2:06:346:02 9.96232
124.4178LORTHOIS Pierre31FRA2:07:066:04 9.91239
125.4066FASQUEL Vincent39FRATEAM TIUNFOU2:07:096:04 9.91241
126.4959SQUEDIN Vianney31FRAH2R2:07:156:04 9.90243
127.4341DOBRANGE Stéphane36BEL2:07:326:05 9.88249
128.5044MOUCHERON Julien39BEL2:07:586:06 9.85257
129.4086THIOU Nicolas39FRA2:08:046:06 9.84258
130.4781BUGNICOURT Baptiste20FRA2:08:316:08 9.80261
131.4972DUTAS Adrien29FRA2:09:126:10 9.75266
132.4705PYCKE Jonathan33BELCOLOMBIAN TEAM2:09:136:10 9.75268
133.4387DUCLOY Florian38FRA2:09:256:10 9.74273
134.4174MOMBAILLARD Julien39FRA2:09:266:10 9.74274
135.5207DUPONT Sebastien33FRA2:10:256:13 9.66279
136.4624CLABOTZ Mathieu32BELZATOPEK NAMUR2:10:296:13 9.66280
137.4054RYCKEWAERT Xavier39FRA2:10:316:13 9.65283
138.5243GALAS Alain29FRA2:10:346:14 9.65284
139.4914VIDAL Maxime35FRA2:10:536:14 9.63290
140.5178RETOUT Nicolas34FRA2:10:546:14 9.63291
141.5179DUFRIER Jimmy25FRA2:10:546:14 9.63292
142.4602AGNERAY Julien32FRA2:10:556:15 9.62293
143.4607CARTON Sylvain36FRAESCALP2:10:556:15 9.62294
144.5118ASISCLO Romain38FRA2:11:056:15 9.61297
145.4887TURBAT Nicolas30FRA2:11:076:15 9.61299
146.5081SERGENT Guillaume39FRA2:11:186:16 9.60300
147.4967MOLLER Vincent29FRA2:11:256:16 9.59301
148.4315MICHALON William31FRA2:11:356:16 9.58304
149.4913CORDIER Luc27FRA2:11:496:17 9.56305
150.2775BOUCHEZ Gregory37FRA2:11:516:17 9.56306
151.4194BOURDON Benjamin36FRA2:11:566:17 9.55307
152.4193BOUVRY Benjamin39FRA2:12:016:18 9.54308
153.4143FAUCOEUR Sebastien32FRA2:12:046:18 9.54310
154.41521828759HENON Maxime32FRACOURIR DANS LE LUMBROIS2:12:056:18 9.54311
155.4819BERGER Xavier35FRA2:12:126:18 9.53316
156.4920CLASEN Patrick27ALL2:12:186:18 9.52321
157.4960PIZZOLATO Domenico34BELSURICATES RUNNERS2:12:366:19 9.50327
158.4650GREGOR Adrien38FRA2:13:056:21 9.47334
159.4416MANIE Jordan21FRA2:13:096:21 9.46336
160.4458CEROUTER Julien33FRA2:13:366:22 9.43348
161.4829HUBERT Thomas39FRA2:13:426:22 9.42350
162.5163MINET Cédric31FRA2:14:066:24 9.40360
163.4430DUHAMEL Michael36FRA2:14:096:24 9.39361
164.4439TOULEMONDE Romain35FRA2:14:096:24 9.39362
165.4397ROGER Didier39FRAJOGG ACQ TEAM2:14:166:24 9.39364
166.4512RUNDSTADLER Alex27FRA2:14:456:25 9.35372
167.4164VANHOREBECK Damien37BELLES MARMOTTES2:14:476:26 9.35373
168.4810ROUARD Vincent31FRA2:14:556:26 9.34377
169.4197CORNU Guillaume27FRAH2R HERLIES2:15:016:26 9.33378
170.5138GROSSET Philippe38FRA2:15:046:26 9.33379
171.4326HENNEBIQUE Julien36FRATEAM DUVEL2:15:096:27 9.32381
172.4393CAPON Benjamin32FRA2:15:276:27 9.30386
173.5244VERRIEST Kevin32FRA2:15:306:28 9.30387
174.4327LÉVÊQUE Erwan34FRA2:15:316:28 9.30388
175.5223VAN RIEL Cédric32FRATENNIS CLUB DE LILLE VAUB2:15:326:28 9.30389
176.4893LE CONIAC Hippolyte25FRA2:15:366:28 9.29392
177.4542BERTON Matthieu39FRA2:15:386:28 9.29394
178.4699CALDERARA Romain31FRA2:15:496:29 9.28395
179.4149CHRÉTIEN Mathieu37FRA2:15:576:29 9.27397
180.4441JONCQUEZ Quentin37FRA2:16:056:29 9.26400
181.4187DELVARRE Jérémy31FRA2:16:096:29 9.25401
182.5078MARTINS Michael36FRA2:16:506:31 9.21408
183.4812DELDICQUE Vincent35BEL2:17:036:32 9.19411
184.4323FAUCOEUR Yannick35FRA2:17:036:32 9.19412
185.4007PRUDHOMME François36FRA2:17:326:33 9.16418
186.2248DANZÉ Louis27FRA2:17:436:34 9.15421
187.4241DUFLO Jonathan31FRA2:18:016:35 9.13423
188.4520DELATTRE Rémi35FRA2:18:086:35 9.12424
189.4100BERTOUX Damien25FRAH2R2:18:196:36 9.11427
190.4583ANTHIERENS Geoffrey39BEL2:18:366:36 9.09432
191.4146LENGLEZ Thomas38FRADUNKERQUE FLYSURFING CLUB2:18:366:36 9.09433
192.4665POURNIN Charlie32FRA2:18:406:37 9.09435
193.4798RATEL Etienne26FRA2:19:196:39 9.04456
194.4865DECOTEGNIE Rémi34FRA2:19:366:39 9.03458
195.4432OLIVIER Tostain27FRA2:19:376:39 9.03459
196.4148LEUREGANS Vincent39FRA2:19:406:40 9.02463
197.4243BARDENET Rémi32FRA2:19:566:40 9.00469
198.4723GYSELINCK Alexis34BEL2:20:006:40 9.00470
199.4163DELHAYE Sebastien38FRA2:20:286:42 8.97477
200.5241GREGORY Lapierre38FRA2:20:366:42 8.96481
201.4755LESEINE Kevin39BEL2:20:386:42 8.96482
202.5191HIEL Sébastien32FRA2:20:426:42 8.96484
203.5252VERBIEST Gilles34BEL2:20:426:42 8.96485
204.5161DELALIEU Guillaume37FRA2:20:456:43 8.95487
205.5123OLOWO Maurille27BEN2:20:586:43 8.94490
206.4111GUÉVILLE Geoffrey28FRA2:21:256:45 8.91498
207.4884GUEVILLE Benjamin32FRA2:21:256:45 8.91499
208.5055PLANCHON Julien37FRA2:21:266:45 8.91500
209.5110DE MAILLARD Thibault33FRA2:21:306:45 8.91501
210.4735GAUTHY Matthieu37BEL2:21:436:45 8.89504
211.4391CAPON Thomas30FRA2:21:446:45 8.89506
212.4841SPECKENS Maxime25FRA2:22:276:47 8.85513
213.4213DERAM Charles-Henri27FRA2:22:546:49 8.82521
214.4706MATHIEU Georges29BELCOLOMBIAN TEAM2:22:556:49 8.82522
215.4198LECLIPTEUX Thomas33BEL2:22:566:49 8.82523
216.4493MAGNIER David33FRA2:23:106:50 8.80528
217.4897FOURNIER Laurent39FRA2:23:546:52 8.76536
218.4777GLORIEUX Stephane39BELVELAINES2:24:076:52 8.74537
219.4349MAFFRE Harold34FRAACC2:24:196:53 8.73542
220.4908JACQMIN Arthur22FRA2:24:216:53 8.73544
221.5203OUTOUGANE Hassan36FRA2:24:426:54 8.71554
222.4320MÉZIÈRE Sébastien35FRA2:24:466:54 8.70558
223.4675MOLLENHAUER Kévin28FRA2:25:006:55 8.69566
224.5049ROUVROY Alexandre32FRA2:25:596:58 8.63583
225.5032CARLIER Maxime32FRA2:25:596:58 8.63584
226.4126DI STEFANO Christophe35BEL2:26:166:58 8.62590
227.4935MASELIS Rudi39FRACOACHRUNNING2:26:206:59 8.61593
228.4239BELLET Aurélien32FRA2:26:236:59 8.61595
229.4813DELATTRE Francois-Xavier33FRA2:26:296:59 8.60599
230.4031VERMEIL Matthieu35FRA2:27:197:01 8.55609
231.4308CHAMEROY Romain33FRA2:27:267:02 8.55610
232.4046RENARD Quentin36FRATRAILEURS DES FAGNES2:27:497:03 8.52614
233.5247TINTILLIER Florent20FRANISSAN2:28:047:04 8.51619
234.4496POULAIN Alexandre30FRA2:28:197:04 8.50625
235.4168GARDAVOIR Sébastien27BEL2:29:057:06 8.45647
236.4562NAU Guillaume38FRA2:29:087:07 8.45648
237.4318ZANNIER Laurent37FRA2:29:117:07 8.45649
238.4360MOSSELMANS Thierry39FRA2:29:287:08 8.43653
239.5248DRUJENT Justin20FRANISSAN2:29:307:08 8.43655
240.4160SINDERA Jean37FRA2:29:337:08 8.43656
241.5202MANTEL Jeremy35FRA2:29:437:08 8.42659
242.4076DOURNEL Francois35FRA2:29:477:08 8.41661
243.4232BELLAIS Guillaume37FRA2:30:057:09 8.40665
244.4306TRANNIN Maxime30FRACHÉ VEDETTES2:30:077:09 8.39666
245.4739DEVENYNS Benjamin37BEL2:30:177:10 8.38669
246.5041PINGUET Elric38FRA2:30:427:11 8.36675
247.5095AZZOUZ Isaac25FRACOLEMBERT2:31:317:13 8.32687
248.4502STINGLHAMBER Lionel38BEL2:32:237:16 8.27694
249.4921LASCH Victor33FRA2:32:417:17 8.25699
250.4248VANTORRE Sébastien37BELSPORT EVASION2:33:057:18 8.23707
251.5190CARON Thomas29FRA2:33:077:18 8.23709
252.4635LAMARCQ Olivier36FRA2:33:237:19 8.21715
253.4090SPECOGNA Albano36FRAOCR BELGIUM WALLONIA2:33:417:20 8.20721
254.5098BINAULT Sebastien39FRA2:33:507:20 8.19724
255.5188DAUTHUILLE Kevin27FRATEAM LMC2:33:577:20 8.18727
256.4107FRESSANCOURT Fernand32FRACDL LUMBROIS2:34:007:20 8.18730
257.4820DESCOBERT Boris32FRASENGHOR AND CO2:34:327:22 8.15742
258.40041581151OSTYN Gregory35FRAPLANETE RUNNING AND WALKI2:36:117:27 8.07752
259.4452VANDECASEYN Johan38BELZSWAPI ATH2:36:437:28 8.04759
260.4811LEMAITRE Sylvain36FRASYLVAIN2:36:457:28 8.04762
261.4480GONTON Raphael38FRARUNCROIX592:36:467:28 8.04764
262.4517BIESBROUCK Julien35FRA2:36:497:29 8.04768
263.4994SEVRIN Loic29FRA2:36:597:29 8.03773
264.5195ROUÉ Alexandre36FRA2:37:297:30 8.00778
265.5194DESSÉRY Paul-Louis32FRA2:38:117:32 7.97787
266.5157DESROUSSEAUX Benoit38FRA2:38:137:33 7.96788
267.5154VALENSI Robert39FRA2:38:147:33 7.96790
268.4206BERCHE Jerome39FRA2:38:357:34 7.95793
269.4543LASALLEL Loic35FRA2:38:377:34 7.94794
270.4234LINSOLAS Francis38FRACE ALSTOM2:39:137:35 7.91805
271.4825PRZYMENCKI Vincent39FRA2:39:307:36 7.90809
272.4867FOURNIER Germain32FRA2:39:527:37 7.88815
273.2053FLORANGE Christopher38FRAOCR BELGIUM WALLONIA2:40:207:39 7.86817
274.4074DUBOIS Marc35FRAOCR BELGIUM WALLONIA2:40:217:39 7.86818
275.4176PLASMAN Pierre36BEL2:40:327:39 7.85819
276.4114LEMATTRE Mathieu26FRA2:40:337:39 7.85820
277.4364CRÉPAT Aurélien31FRABOMBARDIER2:40:427:40 7.84821
278.4263LEVRAY Kévin19EQU2:40:497:40 7.84823
279.4147MANYS Julien39FRA2:41:007:40 7.83825
280.4372BOCQUET Charles29FRAACC LA CHAPELLE D' ARMENT2:41:297:42 7.80832
281.4482STEVENS Gautier21FRAGAUTIER2:41:317:42 7.80834
282.5141NAVIEL Cédric36FRA2:41:487:43 7.79838
283.4855TAVELLA Stephane29FRA2:41:497:43 7.79840
284.4573CANDELIER Jean Baptiste30FRA2:41:507:43 7.79841
285.2156SCHOTT Gregory39FRA2:42:197:44 7.76849
286.45331744485CARDON Amaury26FRAHEM ATHLETIC CLUB2:42:367:45 7.75855
287.2285BOUSSEMAERE Thomas36FRA2:43:137:47 7.72862
288.4029LE ROY Julien30FRAJULIEN2:43:237:47 7.71864
289.4133HERLIN Clement37FRA2:44:047:49 7.68878
290.5101DELHONTE Thibaut26FRA2:44:427:51 7.65890
291.4537DELEM Benoit37BELTORTUES MESLINOISES2:45:097:52 7.63898
292.4702THOME Arnaud35FRA2:46:137:55 7.58908
293.4885TREHOULT Hugo20FRA2:46:187:56 7.58909
294.4612VAILLANT Benjamin33FRA2:46:347:56 7.57910
295.4244BONNEMENT Paul-Henri28FRA2:47:147:58 7.54913
296.4815TRONCHET Nicolas28FRA2:47:207:59 7.53916
297.51422032046MASSENOT Ludovic36FRARUN'IN CLUB2:49:178:04 7.44937
298.4564CHEVALIER Nicolas37FRA2:49:288:05 7.44940
299.4561VANVEUREN Julien37FRA2:49:328:05 7.43941
300.4641CAUCHETEUX Francois30FRACH'TIS MARATHONIENS2:50:228:07 7.40954
301.4328MARTINET Arthur26FRA2:50:238:07 7.40955
302.4127WERQUIN Thomas35FRA2:51:488:11 7.33967
303.4571FLAMANT David33BELTUCHE TEAM2:53:058:15 7.28978
304.5047LÊ Duy Minh31FRA2:53:268:16 7.27981
305.4850JOLY Christopher32FRA2:53:408:17 7.26983
306.4961MIMMO Michael35ITASURICATES RUNNERS2:53:578:17 7.24985
307.5048COTTON Sebastien36FRA2:55:318:22 7.18992
308.4068HEUMEL Lionel37FRA2:55:368:22 7.18993
309.5042BADJI Abba32SÉN2:55:418:22 7.17994
310.4255JOUANNIC Raphael25FRA2:57:178:27 7.111000
311.4878HERLIN Grégoire33FRATEAM HERLIN2:57:548:29 7.081003
312.4394DEBEUNNE Simon33FRABEERUN2:59:218:33 7.031016
313.4668DUJARDIN Florent30FRA3:01:018:38 6.961023
314.5197CLAUDOTTE Maxime39FRA3:04:018:46 6.851041
315.4950ARO Sean26FRA3:05:028:49 6.811048
316.4756DESMETTRE Fabien30FRA3:05:368:51 6.791052
317.4963LIDUENA Benoit25FRA3:08:308:59 6.681057
318.4382DEBOES Yannick31FRA3:09:209:01 6.661061
319.4796GILLET Julien27FRA3:10:109:04 6.631062
DNF4332TRIBOUT Melvin26FRA
DNF: did not finish; DSQ: disqualified; Speed in km/h
Page: [1]